Simultaneous Nadir Overpasses (SNOs) Predictions

Prediction of SNOs between NOAA-19 and TERRA Satellite Orbit:

Table of predicted SNOs for the next 14.0 days since TLE Epoch: 5/2/2015
Index Date (NOAA-19) Time (NOAA-19) Lat,Lon (NOAA-19) SZA (NOAA-19 ) Date (TERRA) Time (TERRA) Lat,Lon (TERRA) SZA (TERRA ) Distance(km) Time Diff (sec)
1 05/03/2015 11:10:30 71.83, 15.94 56.14 05/03/2015 11:10:38 71.82, 15.88 56.13 2.46 8
2 05/03/2015 12:01:24 -71.33,-175.88 124.35 05/03/2015 12:00:14 -71.38,-177.23 124.34 48.12 70
3 05/05/2015 15:53:56 71.93, -55.06 55.60 05/05/2015 15:54:57 71.90, -55.07 55.58 2.62 61
4 05/05/2015 16:44:57 -71.80, 112.42 124.54 05/05/2015 16:44:27 -71.79, 112.37 124.55 2.05 30
5 05/07/2015 21:28:22 -71.87, 41.47 125.08 05/07/2015 21:28:46 -71.86, 41.41 125.09 2.66 24
6 05/07/2015 22:19:20 71.79,-151.11 54.83 05/07/2015 22:18:13 71.76,-151.11 54.80 2.49 67
7 05/10/2015 02:11:51 -72.15, -29.89 125.40 05/10/2015 02:13:02 -72.07, -29.30 125.46 21.95 71
8 05/10/2015 03:02:45 71.84, 137.97 54.30 05/10/2015 03:02:31 71.87, 137.99 54.32 3.25 14
9 05/12/2015 07:46:10 71.90, 67.04 53.79 05/12/2015 07:46:50 71.90, 66.97 53.79 2.78 40
10 05/12/2015 08:37:10 -71.79,-125.51 126.33 05/12/2015 08:36:20 -71.79,-125.59 126.33 2.57 50
11 05/14/2015 12:29:50 72.71, -5.44 54.02 05/14/2015 12:30:56 72.62, -2.82 54.00 87.33 66
12 05/14/2015 13:20:35 -71.88, 163.50 126.78 05/14/2015 13:20:38 -71.87, 163.46 126.80 2.04 3
